Regional Weather Roundup
Issued by NWS

Home | Current Version | Previous Version | Graphics & Text | Print | Product List | Glossary On
Versions: 1 2 3 4 5 6 7 8 9 10 11 12 13 14 15 16 17 18 19 20 21 22 23 24 25 26 27 28 29 30 31 32 33 34 35 36 37 38 39 40 41 42 43 44 45 46 47 48 49 50
700
ASUS45 KPSR 300310
RWRAZ

ARIZONA HOURLY REGIONAL WEATHER ROUNDUP
NATIONAL WEATHER SERVICE PHOENIX AZ
800 PM MST THU SEP 29 2016

NOTE: FAIR INDICATES FEW OR NO CLOUDS BELOW 12,000 FEET WITH NO
SIGNIFICANT WEATHER AND/OR OBSTRUCTIONS TO VISIBILITY.

AZZ001>003-036-300400-
NORTHWEST ARIZONA

CITY           SKY/WX    TMP DP  RH WIND       PRES   REMARKS
BULLHEAD CITY  PTCLDY    91  48  22 S7        29.97R
KINGMAN        CLOUDY    74  47  38 S6        30.16R
$$

AZZ004>008-015-016-018-300400-
NORTH CENTRAL ARIZONA

CITY           SKY/WX    TMP DP  RH WIND       PRES   REMARKS
GRAND CANYON   CLOUDY    54  50  86 CALM      30.40R
PRESCOTT       CLEAR     60  53  77 CALM      30.29R
FLAGSTAFF      CLEAR     48  47  96 CALM      30.41R
PAYSON         CLEAR     63  52  67 CALM      30.32R
PAGE           LGT RAIN  64  59  83 NE5       30.29R
$$

AZZ009>014-017-300400-
NORTHEAST ARIZONA

CITY           SKY/WX    TMP DP  RH WIND       PRES   REMARKS
WINSLOW        CLEAR     58  55  90 SE6       30.32R
SAINT JOHNS    PTCLDY    58  55  90 CALM      30.34S
WINDOW ROCK    CLEAR     52  48  86 CALM      30.43S
SHOW LOW       CLEAR     52  50  93 NE3       30.38S
$$

AZZ023-300400-
GREATER PHOENIX AREA

CITY           SKY/WX    TMP DP  RH WIND       PRES   REMARKS
PHOENIX        CLEAR     90  54  29 N3        29.99R
BUCKEYE        CLEAR     81  57  44 CALM      30.01R
GLENDALE       PTCLDY    88  57  35 CALM      30.01R
LUKE AFB       CLEAR     85  59  41 W6        29.99R
DEER VALLEY    CLEAR     85  52  32 NE7       30.02R
SCOTTSDALE     CLEAR     86  53  32 CALM      30.03R
MESA-FALCON    CLEAR    N/A N/A N/A N6        29.99R
MESA-GATEWAY   PTCLDY    84  55  37 NE7       30.02R
CHANDLER       CLEAR     86  55  35 VRB6      30.01
$$

AZZ027-028-300400-
SOUTHWEST MARICOPA COUNTY AND PINAL COUNTY

CITY           SKY/WX    TMP DP  RH WIND       PRES   REMARKS
CASA GRANDE    CLEAR     82  52  34 NW5       30.04R
GILA BEND      CLEAR     87  54  32 NE6       29.98R
$$

AZZ503-504-507>509-300400-
SOUTHEAST ARIZONA

CITY           SKY/WX    TMP DP  RH WIND       PRES   REMARKS
TUCSON         PTCLDY    71  65  81 N3        30.13R
DAVIS-MONTHAN  CLEAR     69  65  86 SE5       30.12R
RYAN FIELD     CLEAR     73  63  68 SE8       30.12R
NOGALES        CLOUDY    69  59  70 NE6       30.18R
SIERRA VISTA   CLOUDY    63  61  91 CALM      30.26S
DOUGLAS        MOCLDY    64  60  87 NW7       30.21R
SAFFORD        LGT RAIN  68  64  87 SE15      30.17S
$$

AZZ020-021-025-026-031-300400-
SOUTHWEST ARIZONA

CITY           SKY/WX    TMP DP  RH WIND       PRES   REMARKS
YUMA           PTCLDY    89  55  31 W5        29.94R
$$

CAZ031-033-041-043-047-048-061-300400-
SOUTHERN CALIFORNIA

CITY           SKY/WX    TMP DP  RH WIND       PRES   REMARKS
DOWNTOWN L.A.  CLEAR     74  58  57 VRB3      29.99R
L.A. AIRPORT   PTCLDY    72  59  63 SW10      30.00R
SAN DIEGO      PTCLDY    75  66  73 N7        30.02R
BURBANK        CLEAR     81  55  40 SE5       30.01R
ONTARIO        PTCLDY    81  51  35 SW9       30.02R
RIVERSIDE      CLEAR     81  55  40 W7        30.02R
PALM SPRINGS   PTCLDY    90  51  26 VRB3      29.97R
EL CENTRO NAS  PTCLDY    83  54  36 SW6       29.95R
IMPERIAL       PTCLDY    84  59  42 W6        29.93R
BLYTHE         CLEAR     89  47  23 CALM      29.95R
NEEDLES        PTCLDY    92  48  22 S6        29.98R
$$

NVZ020-UTZ003-300400-
SOUTHERN NEVADA-UTAH

CITY           SKY/WX    TMP DP  RH WIND       PRES   REMARKS
LAS VEGAS      PTCLDY    85  46  25 SE5       30.04R
SALT LAKE CITY PTCLDY    64  52  64 E5        30.18R
$$

NMZ009-TXZ055-300400-
NEW MEXICO-WEST TEXAS

CITY           SKY/WX    TMP DP  RH WIND       PRES   REMARKS
ALBUQUERQUE    CLOUDY    61  58  90 NE14      30.42F
EL PASO        MOCLDY    76  46  34 E10       30.23R
$$


........................KEY........................
SKY/WX - SKY CONDITION/WEATHER
TMP    - TEMPERATURE IN FAHRENHEIT
DP     - DEW POINT IN FAHRENHEIT
RH     - RELATIVE HUMIDITY IN PERCENT
WIND   - DIRECTION AND SPEED IN MILES PER HOUR (MPH)
VRB    - VARIABLE WIND DIRECTION
PRES   - MEAN SEA LEVEL PRESSURE IN INCHES OF MERCURY
         F - FALLING PRESSURE   R - RISING PRESSURE
         S - STEADY PRESSURE
VSB    - VISIBILITY IN MILES
HX     - HEAT INDEX IN FAHRENHEIT
WCI    - WIND CHILL INDEX IN FAHRENHEIT
TC     - TEMPERATURE IN CELSIUS WHICH IS ALSO KNOWN AS
         TEMPERATURE IN CENTIGRADE
AFB    - AIR FORCE BASE
         LUKE AFB IS LUKE AIR FORCE BASE
         DAVIS-MONTHAN IS DAVIS-MONTHAN AIR FORCE BASE
NAS    - NAVAL AIR STATION
         EL CENTRO NAS IS EL CENTRO NAVAL AIR STATION
N/A    - NOT AVAILABLE





USA.gov is the U.S. government's official web portal to all federal, state and local government web resources and services.